Location: Houhaj�rvi
(61.2667°N, 23.0167°E)
Time: 18:25:06
(UTC+00:00)

Cosmos 192 - Pass Details

Date: 13 December 2019
Orbit: 701 x 713 km, 74.0° (Epoch: 16 January)

Event Time Altitude Azimuth Distance (km) Brightness Sun altitude
Rises 17:05:54 0° 325° (NW) 3,130 8.1 -25.4°
Reaches altitude 10° 17:08:15 10° 325° (NW) 2,206 7.3 -25.7°
Maximum altitude 17:13:14 78° 240° (WSW) 735 4.4 -26.3°
Enters shadow 17:13:32 74° 198° (SSW) 746 4.3 -26.3°
